This is the latest recevied weather packets stored in our database for station/object KQ4NAL. If no packets are shown the sender has not sent any weather packets the latest 10 day(s).
| Time | Temp. | Humidity | Pressure | Rain* | Wind** | Luminosity | Snow |
|---|---|---|---|---|---|---|---|
| 1777797633 | -2.22° C | 98% | 1020.1 hPa | 0 mm | - | 0 W/m² | - |
| 1777797330 | -1.67° C | 98% | 1019.9 hPa | 0 mm | - | 0 W/m² | - |
| 1777797027 | -1.67° C | 98% | 1020.1 hPa | 0 mm | - | 0 W/m² | - |
| 1777796724 | -2.22° C | 98% | 1020.1 hPa | 0 mm | - | 0 W/m² | - |
| 1777796421 | -2.22° C | 98% | 1019.9 hPa | 0 mm | - | 0 W/m² | - |
| 1777796116 | -2.22° C | 98% | 1019.8 hPa | 0 mm | - | 0 W/m² | - |
| 1777795813 | -2.22° C | 98% | 1019.8 hPa | 0 mm | - | 0 W/m² | - |
| 1777795509 | -2.22° C | 98% | 1020 hPa | 0 mm | - | 0 W/m² | - |
| 1777795206 | -2.22° C | 98% | 1019.7 hPa | 0 mm | - | 0 W/m² | - |
| 1777794902 | -2.78° C | 98% | 1019.8 hPa | 0 mm | - | 0 W/m² | - |
| 1777794599 | -2.78° C | 98% | 1019.9 hPa | 0 mm | - | 0 W/m² | - |
| 1777794294 | -2.78° C | 98% | 1019.8 hPa | 0 mm | - | 0 W/m² | - |
| 1777793990 | -2.22° C | 98% | 1019.8 hPa | 0 mm | - | 0 W/m² | - |
| 1777793687 | -2.22° C | 98% | 1019.8 hPa | 0 mm | - | 0 W/m² | - |
| 1777793385 | -2.78° C | 98% | 1019.7 hPa | 0 mm | - | 0 W/m² | - |
| 1777793083 | -2.78° C | 98% | 1019.5 hPa | 0 mm | - | 0 W/m² | - |
| 1777792780 | -2.22° C | 97% | 1019.6 hPa | 0 mm | - | 0 W/m² | - |
| 1777792477 | -2.22° C | 97% | 1019.7 hPa | 0 mm | - | 0 W/m² | - |
| 1777792172 | -1.67° C | 97% | 1019.8 hPa | 0 mm | - | 0 W/m² | - |
| 1777791870 | -1.67° C | 97% | 1019.9 hPa | 0 mm | - | 0 W/m² | - |
| 1777791568 | -1.67° C | 97% | 1019.8 hPa | 0 mm | - | 0 W/m² | - |
| 1777791265 | -1.11° C | 97% | 1019.8 hPa | 0 mm | - | 0 W/m² | - |
| 1777790963 | -1.11° C | 97% | 1019.6 hPa | 0 mm | - | 0 W/m² | - |
| 1777790660 | -1.67° C | 97% | 1019.8 hPa | 0 mm | - | 0 W/m² | - |
| 1777790356 | -1.67° C | 97% | 1019.7 hPa | 0 mm | - | 0 W/m² | - |
* Rain latest hour (hover to see other rain measurements)
** Current wind speed in m/s (hover to see current wind gust speed)